📊 Raw Sensor Data

Showing records 44026 to 44050 of 85,029 total

ID Distance (ft) Battery V Battery A Int Temp (°F) Int Humid (%) Ext Temp (°F) Solar V RSSI SNR Time Stamp
41016 15.6 3.89 -5 53 42 56 0.00 -68 7 05/19/2025 02:45 AM
41015 15.6 3.89 -5 52 43 54 0.00 -68 8 05/19/2025 02:30 AM
41014 15.6 3.95 -5 53 43 55 0.00 -68 8 05/19/2025 02:15 AM
41013 15.6 3.89 -5 53 43 54 0.00 -69 8 05/19/2025 02:00 AM
41012 15.6 3.89 -5 54 43 56 0.00 -68 8 05/19/2025 01:45 AM
41011 15.7 3.95 -5 54 44 56 0.00 -68 8 05/19/2025 01:30 AM
41010 15.7 3.90 -5 54 44 55 0.00 -67 8 05/19/2025 01:15 AM
41009 15.7 3.90 -5 57 43 54 0.10 -69 8 05/19/2025 01:00 AM
41008 15.6 3.90 -5 57 43 59 0.00 -68 7 05/19/2025 12:45 AM
41007 15.6 3.96 -5 57 43 59 0.00 -68 8 05/19/2025 12:30 AM
41006 15.6 3.96 -5 58 43 60 0.00 -68 8 05/19/2025 12:15 AM
41005 15.6 3.96 -5 59 43 61 0.00 -68 8 05/19/2025 12:00 AM
41004 15.6 3.96 -5 59 43 61 0.00 -69 8 05/18/2025 11:45 PM
41003 15.6 3.96 -5 58 43 61 0.00 -67 8 05/18/2025 11:30 PM
41002 15.5 3.88 -5 58 44 61 0.10 -68 8 05/18/2025 11:15 PM
41001 15.6 3.88 -5 58 44 60 0.00 -67 8 05/18/2025 11:00 PM
41000 15.6 3.89 -5 59 45 59 0.00 -68 8 05/18/2025 10:45 PM
40999 14.9 3.89 -5 60 44 61 0.00 -67 8 05/18/2025 10:30 PM
40998 15.3 3.90 -5 61 44 62 0.00 -68 8 05/18/2025 10:15 PM
40997 15.2 3.89 -5 61 45 63 0.00 -68 8 05/18/2025 10:00 PM
40996 15.1 3.87 -5 62 45 63 0.00 -68 8 05/18/2025 09:45 PM
40995 15.1 3.88 -5 62 46 64 0.00 -68 8 05/18/2025 09:30 PM
40994 15.1 3.88 -5 63 47 64 0.00 -68 8 05/18/2025 09:15 PM
40993 15.1 3.88 -5 64 49 64 0.00 -68 8 05/18/2025 09:00 PM
40992 15.2 3.89 -5 66 50 65 0.00 -68 8 05/18/2025 08:45 PM